This is the latest recevied weather packets stored in our database for station/object KO4APQ. If no packets are shown the sender has not sent any weather packets the latest 10 day(s).
| Time | Temp. | Humidity | Pressure | Rain* | Wind** | Luminosity | Snow |
|---|---|---|---|---|---|---|---|
| 1778161290 | 18.33° C | 97% | 1010.6 hPa | 0 mm | - | 239 W/m² | - |
| 1778160986 | 17.78° C | 98% | 1010.8 hPa | 0 mm | - | 413 W/m² | - |
| 1778160683 | 17.78° C | 98% | 1011.1 hPa | 0 mm | - | 252 W/m² | - |
| 1778160380 | 17.78° C | 98% | 1011.1 hPa | 0 mm | - | 197 W/m² | - |
| 1778160076 | 17.78° C | 98% | 1011.1 hPa | 0 mm | - | 256 W/m² | - |
| 1778159773 | 17.22° C | 98% | 1011.3 hPa | 0 mm | - | 167 W/m² | - |
| 1778159471 | 17.22° C | 98% | 1011.1 hPa | 1.27 mm | - | 144 W/m² | - |
| 1778159167 | 17.22° C | 98% | 1011.2 hPa | 3.05 mm | - | 121 W/m² | - |
| 1778158866 | 17.22° C | 98% | 1012 hPa | 3.05 mm | - | 103 W/m² | - |
| 1778158564 | 17.22° C | 98% | 1011.9 hPa | 3.05 mm | - | 98 W/m² | - |
| 1778158261 | 17.22° C | 98% | 1011.5 hPa | 3.56 mm | - | 67 W/m² | - |
| 1778157957 | 17.22° C | 98% | 1011.4 hPa | 3.05 mm | - | 26 W/m² | - |
| 1778157655 | 17.22° C | 98% | 1012.4 hPa | 3.05 mm | - | 23 W/m² | - |
| 1778157353 | 17.22° C | 98% | 1011.5 hPa | 3.05 mm | - | 34 W/m² | - |
| 1778157050 | 17.22° C | 98% | 1011.3 hPa | 4.32 mm | - | 49 W/m² | - |
| 1778156745 | 17.22° C | 98% | 1011.5 hPa | 3.05 mm | - | 29 W/m² | - |
| 1778156441 | 17.22° C | 98% | 1011.8 hPa | 4.83 mm | - | 21 W/m² | - |
| 1778156137 | 17.22° C | 98% | 1012.2 hPa | 4.32 mm | - | 10 W/m² | - |
| 1778155833 | 17.22° C | 98% | 1010.9 hPa | 3.05 mm | - | 25 W/m² | - |
| 1778155529 | 17.22° C | 98% | 1011.1 hPa | 0 mm | - | 17 W/m² | - |
| 1778155227 | 17.22° C | 98% | 1010.8 hPa | 0 mm | - | 21 W/m² | - |
| 1778154923 | 17.22° C | 98% | 1010.8 hPa | 0 mm | - | 36 W/m² | - |
| 1778154618 | 17.22° C | 98% | 1010.6 hPa | 0 mm | - | 53 W/m² | - |
| 1778154315 | 17.22° C | 98% | 1010.7 hPa | 0 mm | - | 43 W/m² | - |
| 1778154012 | 16.67° C | 98% | 1011.1 hPa | 0 mm | - | 24 W/m² | - |
* Rain latest hour (hover to see other rain measurements)
** Current wind speed in m/s (hover to see current wind gust speed)